Location: Lombard
(41.8800°N, 88.0080°W)
Time: 23:25:24
(UTC-05:00)

A-11 Canister half - Pass Details

Date: 01 February 2023
Orbit: 1512 x 1687 km, 47.2° (Epoch: 20 March)

Event Time Altitude Azimuth Distance (km) Brightness Sun altitude
Rises 08:56:39 0° 186° (S) 4,871 12.2 16.7°
Reaches altitude 10° 09:00:50 10° 171° (S) 3,861 12.1 17.3°
Maximum altitude 09:07:34 21° 127° (SE) 3,021 13.2 18.2°
Drops below altitude 10° 09:14:10 10° 83° (E) 3,775 11.7 19.0°
Sets 09:18:08 0° 69° (ENE) 4,734 11.8 19.5°
